Orbital Elements at Epoch 2459200.5 (2020-Dec-17.0) TDB
Reference: JPL 23 (heliocentric ecliptic J2000)
Element | Value | Uncertainty (1-sigma) | Units |
e | .09782415868555916 | 3.7339e-08 | |
a | 2.77623798176193 | 1.9594e-08 | au |
q | 2.504654836885174 | 1.0547e-07 | au |
i | 13.11323752024905 | 4.8396e-06 | deg |
node | 226.8200513260037 | 1.823e-05 | deg |
peri | 38.458775406844 | 3.1222e-05 | deg |
M | 227.5984698179659 | 2.7435e-05 | deg |
tp | 2459821.903890125016 (2022-Aug-30.40389012) | 0.00013158 | TDB |
period | 1689.598300997286 4.63 | 1.7887e-05 4.897e-08 | d yr |
n | .2130683960723149 | 2.2557e-09 | deg/d |
Q | 3.047821126638685 | 2.1511e-08 | au |
|
| | Orbit Determination Parameters
Additional Information
|